Probability
7 4 2 1 0 0 0 0 0 0 0 0 0 0 0 0 0 0 0 0 0 0 0 0 0 0 0 0 0 0 0 0 0 0 0 1 1 1 1 2 3 3 3 3 3 3 2 1 1
4 3 1 0 0 0 0 0 0 0 0 0 0 0 0 0 0 0 0 0 0 0 0 0 0 0 0 0 0 0 0 0 0 0 0 0 0 0 1 2 3 3 3 3 3 3 3 2 2
1 1 0 0 0 0 0 0 1 1 1 1 0 0 0 0 0 0 0 0 0 0 1 1 1 1 1 1 1 1 1 1 1 1 1 0 0 0 0 1 1 3 3 4 4 4 4 4 4
0 0 0 0 0 0 0 0 1 2 2 1 1 0 0 0 0 0 1 1 0 1 2 2 3 3 3 2 3 3 3 2 2 2 1 1 0 0 0 0 1 3 4 5 6 6 6 6 6
0 0 0 0 0 0 0 0 2 3 3 2 1 1 1 0 0 1 3 3 2 2 3 3 4 5 4 4 4 5 4 4 4 3 2 1 1 0 0 0 1 3 4 5 6 6 6 6 6
0 0 0 0 0 0 0 0 2 3 2 1 1 2 1 0 0 1 3 4 4 3 3 4 5 6 6 6 6 5 5 5 4 3 2 1 0 0 0 0 1 2 3 4 4 5 4 4 4
0 0 0 0 0 0 0 0 1 2 1 1 1 2 1 0 0 0 1 3 4 3 3 3 4 5 6 6 6 5 4 4 4 3 3 1 0 0 0 0 0 1 3 3 3 3 3 3 3
0 0 0 0 0 0 0 1 1 1 1 1 1 1 1 0 0 0 1 3 3 3 3 3 3 4 4 5 5 4 3 3 3 3 3 2 1 0 0 0 0 1 2 2 2 2 2 2 2
0 0 0 0 0 0 1 2 2 2 2 2 1 1 0 0 0 0 2 3 3 3 3 3 3 3 3 4 4 3 3 3 3 3 3 3 1 0 0 0 0 0 1 1 1 1 2 2 1
0 0 0 0 0 0 1 2 3 4 4 2 1 1 0 0 0 0 1 2 3 3 3 3 3 3 3 3 3 3 3 3 3 3 3 3 2 1 0 0 0 0 0 1 1 1 1 1 0
0 0 0 0 0 1 2 3 4 6 5 2 0 0 0 0 0 0 0 1 3 3 3 3 4 3 3 3 3 3 3 3 3 3 3 3 2 1 0 0 0 0 0 0 0 0 0 0 0
0 0 0 0 0 1 2 2 3 6 5 1 0 0 0 0 0 0 0 1 2 3 3 4 4 4 3 3 3 3 3 3 3 3 3 2 1 1 0 0 0 0 0 0 0 0 0 0 0
0 0 0 0 0 0 1 1 2 5 4 1 0 0 0 0 0 0 0 0 1 3 3 4 5 4 3 3 3 3 3 3 1 1 2 1 0 0 0 0 0 0 0 0 0 0 0 0 0
0 0 0 0 0 0 0 0 1 3 4 2 1 0 0 0 0 0 0 0 1 2 3 4 5 5 4 3 3 3 3 2 1 0 0 0 0 0 0 0 0 0 0 0 0 0 0 0 0
0 0 0 0 0 0 0 0 1 2 3 3 1 0 0 0 0 0 0 0 0 1 2 3 4 4 3 3 3 3 3 2 1 0 0 0 0 0 0 0 0 0 0 0 0 0 0 0 0
0 0 0 0 0 0 0 0 0 1 1 1 1 1 1 0 0 0 0 0 0 1 2 3 4 4 3 3 3 3 3 2 1 0 0 0 0 0 0 0 0 0 0 0 0 0 0 0 0
0 0 0 0 0 0 0 0 1 1 1 0 1 2 2 1 0 0 1 2 2 2 3 5 6 5 4 3 3 3 3 2 1 0 0 0 0 0 0 0 0 0 0 0 0 0 0 0 0
0 0 0 0 0 0 0 0 1 2 1 0 1 1 2 1 0 1 2 3 3 2 3 5 6 6 5 4 3 3 3 1 0 0 0 0 0 0 0 0 0 0 0 0 0 0 0 0 0
0 0 0 0 0 0 0 0 1 2 2 1 0 1 2 1 1 2 3 3 3 1 2 4 5 6 6 5 4 3 2 1 0 0 0 0 0 0 0 0 0 0 0 0 0 0 0 0 0
0 0 0 0 0 0 0 0 1 2 2 1 0 1 1 1 1 2 2 2 2 1 1 2 4 5 6 6 4 2 1 1 1 1 1 0 0 0 0 0 0 0 0 0 0 0 0 0 0
0 0 0 0 0 0 0 0 0 1 2 2 1 0 0 0 0 1 1 1 1 0 0 1 2 4 5 5 3 1 1 2 2 2 2 1 0 0 0 0 0 0 0 0 0 0 0 0 0
0 0 0 0 0 0 0 0 0 1 2 3 2 1 0 0 0 0 1 1 1 0 0 0 1 2 4 4 3 2 2 3 3 3 3 2 1 0 0 0 0 0 0 0 0 0 0 0 0
0 0 0 0 0 0 0 0 0 0 1 2 3 2 1 0 0 0 1 2 2 1 0 0 0 1 2 3 3 3 3 3 3 3 3 2 1 0 0 0 0 0 0 0 0 0 0 0 0
0 0 0 0 0 0 0 0 0 0 0 1 3 3 1 1 0 0 1 2 3 2 1 1 0 0 1 2 3 3 3 3 3 3 3 2 1 0 0 0 0 0 0 0 0 0 0 0 0
0 0 0 0 0 0 0 0 0 0 0 1 2 3 3 2 1 1 2 3 3 4 3 2 1 0 0 1 2 2 3 3 3 3 3 2 1 0 0 0 0 0 0 0 0 0 0 0 0
0 0 0 0 0 0 0 0 0 0 0 1 2 3 3 3 1 1 3 4 4 5 5 3 1 0 0 0 1 1 1 2 3 3 3 1 0 0 0 0 0 0 0 0 0 0 0 0 0
0 0 0 0 0 0 0 0 0 0 0 0 1 3 3 3 2 1 3 4 5 5 5 4 2 1 0 0 0 0 0 1 3 3 2 1 0 0 0 0 0 0 0 0 0 0 0 0 0
0 0 0 0 0 0 0 0 0 0 0 0 1 2 3 3 1 1 2 3 4 4 4 3 3 2 1 0 0 0 0 1 2 3 2 0 0 0 0 0 0 0 0 0 0 0 0 0 0
0 0 0 0 0 0 0 0 0 0 0 0 0 1 2 2 1 1 2 3 3 3 3 3 3 3 1 1 0 0 0 1 2 3 2 1 0 0 0 0 0 0 0 0 0 0 0 0 0
0 0 0 0 0 0 0 0 0 0 0 0 0 0 1 1 0 1 2 3 3 3 3 3 3 3 2 2 1 1 1 1 1 3 2 1 0 0 0 0 0 0 0 0 0 0 0 0 0
Wind_Speed
1 0 2 3 6 5 2 2 2 3 4 5 7 9 8 6 4 4 1 5 5 3 2 4 6 7 8 8 8 8 8 9 9 9 9 10 9 9 9 9 9 9 9 8 7 7 7 7 7
0 1 3 5 5 4 1 1 3 3 4 5 7 7 7 6 4 5 3 4 5 4 3 4 6 7 8 8 8 8 8 9 9 9 9 9 9 9 9 9 9 9 9 8 8 8 7 7 7
1 1 4 5 4 3 2 1 3 4 5 5 5 6 5 4 3 3 4 6 5 4 3 4 7 8 8 8 8 8 8 9 9 9 9 9 9 9 9 9 9 9 9 8 8 8 8 7 7
3 4 5 6 4 1 3 2 4 6 5 6 6 6 4 3 2 4 6 7 6 4 2 4 7 8 8 8 8 8 9 9 9 9 9 9 9 9 9 9 9 9 8 8 8 8 7 7 7
4 5 5 3 2 0 2 3 4 5 4 5 7 6 4 2 6 8 7 6 6 4 2 4 8 9 8 8 9 9 9 9 9 8 8 9 9 9 9 9 9 8 7 7 7 7 7 7 7
4 5 4 2 1 1 1 2 6 7 6 5 7 6 3 1 5 6 6 6 6 5 3 4 8 9 8 8 8 9 9 9 9 8 9 9 9 9 9 9 8 8 8 7 7 7 7 7 7
4 4 3 2 2 2 2 3 5 6 5 3 5 5 3 1 3 6 6 5 5 4 4 3 4 5 7 8 8 8 8 9 9 9 9 8 8 8 8 8 7 7 7 7 7 6 6 6 6
5 5 3 2 2 1 1 3 4 6 4 3 4 6 4 3 4 6 6 5 5 4 3 3 3 3 3 3 6 6 7 7 7 8 8 8 7 6 6 6 6 7 7 7 7 7 7 6 7
5 6 2 1 3 2 2 5 4 4 7 5 4 4 6 7 7 7 6 5 4 4 2 2 3 2 2 2 3 4 5 6 5 5 7 6 4 4 3 5 6 6 7 7 8 8 7 7 7
5 4 2 2 4 3 2 4 4 5 6 5 5 6 7 7 7 7 6 4 4 3 2 2 3 2 2 2 2 2 2 3 3 3 3 3 3 3 4 5 7 7 7 7 8 8 7 6 4
4 4 2 1 3 4 4 3 3 6 4 5 9 9 7 7 6 5 5 4 4 4 3 3 3 3 2 2 2 1 2 2 2 3 2 2 2 2 3 2 3 4 6 4 5 5 4 4 3
4 2 3 3 4 4 4 3 3 3 4 7 11 11 8 8 6 5 4 4 4 4 4 3 3 3 3 2 2 2 2 2 2 2 2 2 2 2 2 2 2 2 2 3 3 3 4 4 4
3 2 2 3 4 4 4 4 4 2 5 8 10 9 8 7 5 4 4 4 4 4 4 4 4 4 3 3 2 2 2 2 2 2 2 3 2 2 2 2 2 2 2 3 3 3 4 4 4
4 3 2 2 2 2 4 2 3 3 7 9 9 7 6 6 5 4 4 3 3 3 3 4 4 4 4 3 3 2 2 2 2 2 2 3 2 2 2 2 2 2 2 2 3 3 3 3 3
3 4 1 0 1 1 5 2 2 5 8 9 8 7 6 5 5 5 5 4 4 3 3 4 5 4 4 4 3 3 3 3 3 3 3 3 3 3 3 2 2 2 2 3 3 4 3 3 4
2 3 1 3 2 2 5 2 3 4 7 7 6 6 6 5 5 5 5 4 4 4 4 4 5 5 4 4 3 3 3 3 3 3 3 4 4 4 4 3 2 2 2 2 3 3 3 4 3
1 1 3 3 3 3 4 3 3 5 8 7 7 6 6 5 4 4 4 5 5 4 4 4 5 5 5 5 4 4 3 4 3 3 3 3 4 4 4 3 2 3 3 3 3 3 2 3 3
4 3 3 4 3 4 4 2 3 4 6 6 5 5 5 6 5 5 4 4 4 5 5 5 5 4 5 4 4 4 4 3 3 2 2 3 3 3 3 3 3 3 3 3 3 3 3 3 2
3 3 2 3 3 4 4 4 4 5 5 5 5 6 6 6 4 4 4 5 4 4 5 5 5 4 4 3 3 2 2 1 2 2 3 3 3 3 3 3 3 3 3 3 3 2 4 3 2
2 2 1 1 2 3 3 3 3 5 7 8 8 8 7 5 4 4 4 4 4 4 4 4 4 4 4 3 2 2 2 1 1 1 2 3 3 3 3 3 3 3 3 4 4 3 2 2 2
0 2 3 3 1 1 2 2 2 2 3 4 5 6 7 8 7 5 4 4 3 3 3 4 4 4 4 4 3 3 3 3 2 2 2 2 2 3 3 3 3 3 3 2 2 2 3 1 2
2 3 2 2 2 2 2 2 4 3 2 3 4 5 6 7 6 6 5 4 4 3 3 3 4 4 4 5 5 5 3 2 1 0 1 2 2 3 3 3 3 3 2 2 2 3 2 2 1
3 2 1 1 2 1 0 2 5 1 2 4 5 6 6 7 7 7 6 5 4 3 3 3 4 3 3 4 5 5 3 2 1 1 2 2 2 2 3 3 3 3 2 2 2 2 2 2 2
1 3 5 4 4 2 3 3 4 3 5 4 4 5 6 7 7 6 5 4 3 3 3 3 4 3 3 4 4 5 5 3 3 2 2 1 1 1 2 2 2 2 2 2 2 2 3 2 2
4 5 4 5 3 4 1 2 4 4 3 4 5 5 5 5 6 6 5 4 4 4 3 3 4 2 2 3 3 4 4 4 4 3 2 2 1 0 1 2 2 2 2 2 2 2 2 2 2
1 6 5 3 3 4 2 2 3 3 1 3 3 4 5 4 4 5 6 5 4 4 4 4 3 2 2 3 2 3 4 3 3 3 3 3 2 2 2 2 2 2 2 2 2 1 1 1 1
2 1 5 5 1 1 2 2 3 4 4 2 2 3 4 5 5 5 5 4 4 4 3 4 4 3 2 2 2 2 3 3 3 3 2 2 2 2 2 2 2 1 2 2 2 1 1 1 1
3 3 4 3 1 1 3 2 3 3 2 1 1 3 3 4 4 4 5 5 4 3 3 3 3 3 2 2 3 2 2 3 3 3 2 2 2 2 3 2 2 2 2 2 2 1 1 2 1
1 2 3 2 3 4 2 4 3 3 2 1 1 1 2 2 4 4 4 4 3 3 3 3 2 2 2 2 2 2 2 2 3 2 2 3 3 3 3 3 2 2 2 2 2 1 1 1 1
3 3 4 3 2 2 2 5 4 1 1 2 1 1 1 2 2 3 3 3 2 2 2 3 2 2 2 2 2 2 2 2 2 2 2 2 3 3 3 3 3 2 2 1 2 2 1 1 1
Wind_Direction
212 80 92 63 57 56 46 358 90 57 52 49 68 79 82 64 84 121 154 128 123 123 111 107 97 92 87 85 84 80 79 83 84 83 80 79 79 81 82 80 82 83 82 81 82 81 84 90 92
61 93 65 58 77 76 22 4 86 84 125 111 72 72 75 68 72 105 112 136 130 127 118 108 98 96 91 88 84 83 81 83 85 83 82 80 79 80 81 83 84 81 80 78 76 78 81 86 87
9 77 78 67 78 129 148 187 121 86 85 82 73 56 69 87 93 123 152 147 128 119 116 117 101 96 93 91 88 85 84 85 87 86 85 83 81 81 81 82 83 81 80 78 75 76 80 82 82
66 47 54 70 78 144 152 167 124 96 67 60 88 67 62 72 114 133 140 136 119 116 121 122 110 101 95 92 90 88 87 87 87 88 87 85 83 82 83 81 81 81 79 78 76 75 76 76 74
67 72 64 63 78 79 125 136 110 94 75 78 92 90 63 32 105 124 131 129 122 125 133 129 115 107 99 93 89 88 89 89 88 86 84 85 84 83 83 81 78 78 77 76 77 75 73 70 66
59 68 81 85 86 44 67 100 95 88 95 95 94 100 82 85 117 130 129 129 130 131 123 123 123 114 105 98 91 87 86 88 90 87 83 85 84 82 83 82 77 74 73 73 73 71 70 67 66
103 90 103 119 89 60 95 99 95 105 98 101 112 99 110 107 133 129 125 126 124 117 106 105 119 116 112 105 99 94 89 88 87 85 82 82 83 82 81 79 74 70 68 69 66 63 66 64 62
122 97 77 87 109 104 101 91 96 102 97 99 102 120 151 182 137 120 112 110 108 101 102 106 107 104 104 102 105 100 94 89 86 84 81 74 73 75 75 76 73 70 66 65 59 52 53 52 54
85 78 94 169 150 163 112 96 69 79 90 71 72 119 149 145 122 109 100 91 102 105 108 112 115 114 116 113 106 94 92 87 82 78 81 70 48 46 53 64 70 69 64 60 56 51 53 51 50
83 108 188 194 154 146 109 108 119 89 82 73 71 82 111 118 118 116 119 122 127 134 137 129 130 128 116 107 83 59 69 67 65 64 64 57 52 44 50 51 56 55 57 51 51 52 50 45 42
110 145 162 121 129 118 103 82 88 110 102 148 140 135 127 120 121 125 132 140 147 147 139 137 135 130 118 98 91 71 65 62 53 59 66 66 55 46 43 39 36 33 39 34 37 43 40 39 42
102 133 142 137 119 108 112 103 77 105 167 161 148 143 137 137 142 145 144 141 132 129 130 136 138 125 119 106 93 83 79 71 56 48 71 83 74 61 54 47 30 30 31 33 34 38 40 43 45
99 112 97 117 108 114 103 105 115 134 138 136 136 136 142 146 149 151 149 140 131 130 137 140 136 129 118 103 99 90 82 81 74 55 62 86 91 81 66 56 48 42 41 47 44 40 45 49 50
155 134 129 129 117 111 118 116 108 167 143 138 138 141 147 149 148 136 133 132 131 134 140 135 128 121 111 105 103 97 86 76 67 59 61 78 88 86 79 62 48 41 41 50 56 53 54 50 53
121 110 74 254 136 158 113 67 161 176 150 146 149 152 148 150 148 148 152 150 152 141 128 124 127 113 112 112 107 95 81 81 70 58 57 67 77 82 80 68 46 33 40 50 56 49 50 57 55
78 88 172 255 181 166 115 202 231 172 152 158 159 157 154 158 159 159 156 150 149 137 129 126 126 117 112 105 97 90 82 78 72 62 59 63 70 77 79 71 53 40 46 45 61 53 56 51 52
48 172 220 256 202 155 138 200 229 179 160 168 167 164 164 161 160 161 157 153 148 143 128 114 118 123 117 106 95 85 76 69 68 64 56 62 70 78 84 76 54 53 55 44 59 58 65 64 54
217 207 202 217 215 141 142 192 219 184 170 175 170 164 163 165 176 168 155 151 142 138 125 118 115 115 110 100 85 72 67 61 59 63 56 63 67 72 83 78 57 59 61 47 51 66 58 67 62
183 169 198 233 195 142 172 200 214 193 173 174 176 174 174 180 181 159 148 145 132 125 120 123 122 123 117 109 102 94 81 63 54 60 61 67 71 73 78 78 68 63 69 61 59 76 66 49 47
110 126 186 275 214 160 183 224 223 190 192 186 183 183 179 173 166 166 153 137 137 137 137 138 141 137 134 134 133 131 123 93 83 49 50 57 73 80 89 88 82 73 70 57 49 63 74 49 46
43 175 195 214 304 80 126 321 286 255 214 190 188 185 177 173 170 164 154 143 128 128 143 144 149 145 140 133 114 91 64 48 37 32 30 29 74 87 90 95 93 85 83 79 57 65 85 85 25
265 252 188 170 108 262 168 234 281 245 224 200 200 187 180 174 165 159 154 149 149 153 148 141 142 139 137 132 127 127 124 129 181 170 71 33 61 76 86 95 92 90 85 87 81 71 74 99 77
235 257 177 149 143 315 285 147 287 295 222 227 207 188 176 172 165 166 167 166 163 154 147 145 132 126 131 136 139 135 132 145 132 84 76 54 39 62 80 95 93 92 90 90 77 69 72 86 108
128 35 31 44 68 319 246 158 272 241 227 212 200 186 174 168 165 165 163 154 152 145 129 121 125 124 135 136 138 145 149 143 125 111 110 92 51 54 67 90 90 93 94 95 92 83 82 79 86
59 74 33 4 7 265 259 137 253 266 229 182 177 179 170 168 163 161 158 158 159 150 140 130 128 131 141 142 145 156 158 152 155 162 157 148 133 99 97 101 100 100 109 113 99 85 82 84 88
145 129 148 195 234 282 346 204 263 314 70 124 143 149 145 146 155 160 161 159 161 160 150 142 140 143 151 150 162 165 160 158 168 180 173 173 182 183 163 131 122 119 115 105 93 88 90 82 80
120 181 173 149 221 286 297 306 332 11 33 62 116 138 159 168 168 167 159 156 155 156 163 161 155 154 158 163 161 162 160 159 171 183 177 175 182 167 144 137 133 127 118 110 104 86 82 84 76
139 152 84 102 146 273 295 284 270 280 287 350 146 171 190 181 169 161 165 170 167 164 156 142 150 162 172 169 171 156 167 166 162 155 164 171 166 149 141 140 138 129 124 114 106 96 89 87 70
70 74 95 117 153 161 245 271 262 224 202 170 171 161 155 171 173 173 176 176 165 152 149 153 158 148 156 168 163 151 166 161 150 152 173 176 166 159 158 162 154 144 135 126 114 117 102 95 54
144 156 136 145 245 173 176 263 324 149 132 129 129 102 96 107 152 166 165 156 153 159 166 171 174 171 175 164 147 155 165 152 155 172 185 171 166 168 165 159 152 159 155 145 145 164 148 153 164